Terminal Aerodrome Forecast
Issued by NWS Albuquerque, NM

Home | Current Version | Previous Version | Text Only | Print | Product List | Glossary On
Versions: 1 2 3 4 5 6 7 8 9 10 11 12 13 14 15 16 17 18 19
000
FTUS45 KABQ 190500
TAFABQ
TAF
KABQ 190535Z 1906/2006 36005KT P6SM FEW040 SCT110
     FM190900 33005KT P6SM SCT004 SCT150
     FM191600 32008KT P6SM FEW150=

USA.gov is the U.S. government's official web portal to all federal, state and local government web resources and services.